• In Hungary
  • List of Countries
  • For 7 days
  • Water Temperature
  • Satellite Maps
  • Weather Map
  • News
  • Weather Widgets
  • user-avatar
    Login

    Hourly Weather Loy

    Today, 23 June, Saturday

    Time Temperature Precipitation Wind Pressure Humidity
    00:00 +13°C° 0 mm 2 mps 742 mmHg 96%
    01:00 +13°C° 0 mm 2 mps 742 mmHg 95%
    02:00 +12°C° 0 mm 2 mps 742 mmHg 96%
    03:00 +12°C° 0 mm 2 mps 743 mmHg 94%
    04:00 +13°C° 0 mm 2 mps 743 mmHg 91%
    05:00 +13°C° 0 mm 2 mps 743 mmHg 89%
    06:00 +15°C° 0 mm 2 mps 744 mmHg 79%
    07:00 +17°C° 0 mm 2 mps 744 mmHg 69%
    08:00 +19°C° 0 mm 1 mps 744 mmHg 59%
    09:00 +21°C° 0 mm 1 mps 744 mmHg 54%
    10:00 +22°C° 0 mm 1 mps 744 mmHg 49%
    11:00 +24°C° 0 mm 1 mps 744 mmHg 44%
    12:00 +23°C° 0 mm 1 mps 744 mmHg 45%
    13:00 +23°C° 0 mm 1 mps 744 mmHg 46%
    14:00 +23°C° 0 mm 2 mps 744 mmHg 47%
    15:00 +21°C° 0 mm 2 mps 743 mmHg 52%
    16:00 +20°C° 0 mm 2 mps 743 mmHg 56%
    17:00 +20°C° 0 mm 2 mps 743 mmHg 61%
    18:00 +18°C° 0.2 mm 3 mps 742 mmHg 67%
    19:00 +17°C° 0.2 mm 3 mps 742 mmHg 73%
    20:00 +14°C° 0.2 mm 3 mps 742 mmHg 79%
    21:00 +14°C° 2.4 mm 3 mps 741 mmHg 84%
    22:00 +13°C° 2.4 mm 3 mps 741 mmHg 89%
    23:00 +13°C° 2.4 mm 3 mps 741 mmHg 95%

    Tomorrow, 24 June, Sunday

    Time Temperature Precipitation Wind Pressure Humidity
    00:00 +13°C° 0.2 mm 3 mps 741 mmHg 95%
    01:00 +13°C° 0.2 mm 3 mps 740 mmHg 96%
    02:00 +14°C° 0.2 mm 3 mps 740 mmHg 97%
    03:00 +16°C° 0.1 mm 3 mps 740 mmHg 97%
    04:00 +17°C° 0.1 mm 3 mps 739 mmHg 96%
    05:00 +19°C° 0.1 mm 4 mps 739 mmHg 95%
    06:00 +20°C° 0 mm 4 mps 739 mmHg 88%
    07:00 +22°C° 0 mm 5 mps 739 mmHg 80%
    08:00 +24°C° 0 mm 6 mps 739 mmHg 72%
    09:00 +26°C° 0 mm 6 mps 739 mmHg 68%
    10:00 +27°C° 0 mm 6 mps 739 mmHg 64%
    11:00 +28°C° 0 mm 6 mps 739 mmHg 60%
    12:00 +28°C° 0.6 mm 6 mps 739 mmHg 64%
    13:00 +27°C° 0.6 mm 5 mps 739 mmHg 68%
    14:00 +27°C° 0.6 mm 5 mps 740 mmHg 73%
    15:00 +26°C° 0.6 mm 5 mps 740 mmHg 75%
    16:00 +25°C° 0.6 mm 4 mps 740 mmHg 76%
    17:00 +23°C° 0.6 mm 4 mps 740 mmHg 78%
    18:00 +21°C° 0.1 mm 4 mps 741 mmHg 80%
    19:00 +20°C° 0.1 mm 3 mps 741 mmHg 82%
    20:00 +18°C° 0.1 mm 3 mps 741 mmHg 84%
    21:00 +17°C° 0 mm 2 mps 742 mmHg 88%
    22:00 +15°C° 0 mm 2 mps 742 mmHg 91%
    23:00 +14°C° 0 mm 2 mps 742 mmHg 95%

    Day after tomorrow, 25 June, Monday

    Time Temperature Precipitation Wind Pressure Humidity
    00:00 +13°C° 0 mm 2 mps 743 mmHg 95%
    01:00 +12°C° 0 mm 2 mps 743 mmHg 96%
    02:00 +10°C° 0 mm 2 mps 744 mmHg 97%
    03:00 +10°C° 0 mm 2 mps 744 mmHg 94%
    04:00 +12°C° 0 mm 2 mps 744 mmHg 92%
    05:00 +12°C° 0 mm 2 mps 745 mmHg 89%
    06:00 +14°C° 0 mm 2 mps 745 mmHg 80%
    07:00 +15°C° 0 mm 2 mps 745 mmHg 72%
    08:00 +17°C° 0 mm 2 mps 745 mmHg 63%
    09:00 +18°C° 0 mm 2 mps 746 mmHg 57%
    10:00 +20°C° 0 mm 2 mps 746 mmHg 52%
    11:00 +21°C° 0 mm 2 mps 746 mmHg 46%
    12:00 +23°C° 0 mm 2 mps 746 mmHg 45%
    13:00 +23°C° 0 mm 2 mps 746 mmHg 44%
    14:00 +24°C° 0 mm 2 mps 746 mmHg 42%
    15:00 +24°C° 0 mm 2 mps 746 mmHg 45%
    16:00 +24°C° 0 mm 2 mps 747 mmHg 47%
    17:00 +24°C° 0 mm 2 mps 747 mmHg 49%
    18:00 +21°C° 0 mm 2 mps 747 mmHg 56%
    19:00 +20°C° 0 mm 1 mps 747 mmHg 64%
    20:00 +18°C° 0 mm 1 mps 747 mmHg 71%
    21:00 +16°C° 0 mm 1 mps 748 mmHg 74%
    22:00 +15°C° 0 mm 1 mps 748 mmHg 77%
    23:00 +14°C° 0 mm 1 mps 748 mmHg 80%

    26 June, Tuesday

    Time Temperature Precipitation Wind Pressure Humidity
    00:00 +13°C° 0 mm 1 mps 748 mmHg 82%
    01:00 +13°C° 0 mm 1 mps 748 mmHg 85%
    02:00 +12°C° 0 mm 1 mps 749 mmHg 87%
    03:00 +13°C° 0 mm 1 mps 749 mmHg 84%
    04:00 +14°C° 0 mm 1 mps 749 mmHg 81%
    05:00 +15°C° 0 mm 1 mps 750 mmHg 78%
    06:00 +18°C° 0 mm 1 mps 750 mmHg 72%
    07:00 +20°C° 0 mm 1 mps 750 mmHg 65%
    08:00 +22°C° 0 mm 1 mps 750 mmHg 58%
    09:00 +23°C° 0 mm 1 mps 750 mmHg 54%
    10:00 +24°C° 0 mm 1 mps 750 mmHg 50%
    11:00 +25°C° 0 mm 2 mps 750 mmHg 45%
    12:00 +25°C° 0 mm 2 mps 750 mmHg 44%
    13:00 +26°C° 0 mm 2 mps 750 mmHg 43%
    14:00 +26°C° 0 mm 2 mps 750 mmHg 42%
    15:00 +26°C° 0 mm 2 mps 750 mmHg 45%
    16:00 +25°C° 0 mm 1 mps 750 mmHg 48%
    17:00 +25°C° 0 mm 1 mps 750 mmHg 50%
    18:00 +23°C° 0 mm 1 mps 751 mmHg 57%
    19:00 +21°C° 0 mm 1 mps 751 mmHg 63%
    20:00 +19°C° 0 mm 1 mps 751 mmHg 70%
    21:00 +18°C° 0 mm 1 mps 751 mmHg 72%
    22:00 +16°C° 0 mm 1 mps 751 mmHg 74%
    23:00 +15°C° 0 mm 1 mps 751 mmHg 77%

    27 June, Wednesday

    Time Temperature Precipitation Wind Pressure Humidity
    00:00 +15°C° 0 mm 1 mps 751 mmHg 78%
    01:00 +14°C° 0 mm 1 mps 751 mmHg 80%
    02:00 +14°C° 0 mm 1 mps 752 mmHg 81%
    03:00 +15°C° 0 mm 1 mps 752 mmHg 79%
    04:00 +16°C° 0 mm 1 mps 752 mmHg 77%
    05:00 +16°C° 0 mm 0 mps 752 mmHg 75%
    06:00 +18°C° 0 mm 0 mps 752 mmHg 68%
    07:00 +20°C° 0 mm 0 mps 752 mmHg 62%
    08:00 +22°C° 0 mm 0 mps 752 mmHg 55%
    09:00 +25°C° 0 mm 1 mps 752 mmHg 50%
    10:00 +26°C° 0 mm 1 mps 752 mmHg 46%
    11:00 +27°C° 0 mm 1 mps 752 mmHg 41%
    12:00 +27°C° 0 mm 1 mps 752 mmHg 41%
    13:00 +27°C° 0 mm 1 mps 752 mmHg 40%
    14:00 +27°C° 0 mm 1 mps 752 mmHg 40%
    15:00 +27°C° 0 mm 1 mps 752 mmHg 42%
    16:00 +27°C° 0 mm 1 mps 751 mmHg 45%
    17:00 +27°C° 0 mm 1 mps 751 mmHg 47%
    18:00 +25°C° 0 mm 1 mps 752 mmHg 53%
    19:00 +23°C° 0 mm 1 mps 752 mmHg 59%
    20:00 +21°C° 0 mm 1 mps 752 mmHg 65%
    21:00 +21°C° 0 mm 1 mps 752 mmHg 66%
    22:00 +20°C° 0 mm 1 mps 752 mmHg 67%
    23:00 +19°C° 0 mm 1 mps 752 mmHg 69%

    28 June, Thursday

    Time Temperature Precipitation Wind Pressure Humidity
    00:00 +18°C° 0 mm 1 mps 752 mmHg 71%
    01:00 +16°C° 0 mm 1 mps 752 mmHg 73%
    02:00 +16°C° 0 mm 2 mps 752 mmHg 75%
    03:00 +16°C° 0 mm 2 mps 752 mmHg 75%
    04:00 +17°C° 0 mm 2 mps 753 mmHg 74%
    05:00 +18°C° 0 mm 1 mps 753 mmHg 74%
    06:00 +19°C° 0 mm 2 mps 753 mmHg 66%
    07:00 +21°C° 0 mm 2 mps 753 mmHg 58%
    08:00 +24°C° 0 mm 2 mps 753 mmHg 50%
    09:00 +25°C° 0 mm 2 mps 753 mmHg 46%
    10:00 +26°C° 0 mm 3 mps 753 mmHg 42%
    11:00 +26°C° 0 mm 3 mps 753 mmHg 39%
    12:00 +27°C° 0 mm 3 mps 753 mmHg 38%
    13:00 +27°C° 0 mm 3 mps 752 mmHg 37%
    14:00 +27°C° 0 mm 2 mps 752 mmHg 37%
    15:00 +27°C° 0 mm 2 mps 752 mmHg 39%
    16:00 +26°C° 0 mm 2 mps 752 mmHg 42%
    17:00 +26°C° 0 mm 2 mps 752 mmHg 45%
    18:00 +23°C° 0 mm 2 mps 752 mmHg 51%
    19:00 +20°C° 0 mm 2 mps 752 mmHg 58%
    20:00 +18°C° 0 mm 2 mps 752 mmHg 64%
    21:00 +17°C° 0 mm 2 mps 752 mmHg 65%
    22:00 +16°C° 0 mm 2 mps 752 mmHg 65%
    23:00 +15°C° 0 mm 2 mps 752 mmHg 66%
    Show more